Terug naar catalogus

STARLINK-35437

ActiefCommunicatieVLEO
NORAD 66563·PAYLOAD·🇺🇸 United States

Gelanceerd Nov 21, 2025 vanaf Cape Canaveral Space Force Station

Loading…

Volgende Passages (komende 24 uur)

TLE

VersSource: CelesTrak SupGP

Epoch: Sep 14, 2026, 21:22 UTC

1 66563C 25268G   26257.89076389  .00007554  00000+0  27361-3 0  2570
2 66563  43.0037 358.4560 0001780 275.4386 197.2393 15.27570999    16

Volg STARLINK-35437 in realtime met AllMySat

Download on the App Store